Victoria, TX

8:16 AM CST on December 07, 2019 (GMT -0600)
Victoria Regional

Weather History for KVCT - October, 2019

Change the Weather History Date:

Thursday, October 3, 2019

  Actual Average Record
Temperature  
Mean Temperature 82 °F 76 °F  
Max Temperature 93 °F 87 °F 99 °F (1938)
Min Temperature 71 °F 64 °F 50 °F (1961)
Degree Days  
Heating Degree Days 0 0  
Month to date heating degree days 0 0  
Since 1 July heating degree days 0 1  
Cooling Degree Days 18 11  
Month to date cooling degree days 54 33  
Year to date cooling degree days 3319 2831  
Growing Degree Days 32 (Base 50)    
Moisture  
Dew Point 72 °F    
Average Humidity 78    
Maximum Humidity 94    
Minimum Humidity 41    
Precipitation  
Precipitation 0.00 in 0.14 in 3.39 in (1949)
Month to date precipitation 0.00 0.42  
Year to date precipitation 19.36 31.45  
Snow  
Snow 0.00 in 0.00 in 0.00 in (2002)
Month to date snowfall 0.0 0.0  
Since 1 July snowfall 0.0 0.0  
Since 1 September snowfall 0.0 0.0  
Snow Depth 0.00 in    
Sea Level Pressure  
Sea Level Pressure 29.98 in    
Wind  
Wind Speed 5 mph ()    
Max Wind Speed 20 mph    
Max Gust Speed 24 mph    
Visibility 7.8 miles    
Events      
T = Trace of Precipitation, MM = Missing Value Source: Averaged Metar Reports

Daily Weather History Graph

Daily Weather History Graph

Search for Another Location

Airport or City:

Astronomy

Oct. 03, 2019 Rise Set
Actual Time 7:21 AM CDT 7:11 PM CDT
Civil Twilight 6:58 AM CDT 7:34 PM CDT
Nautical Twilight 6:30 AM CDT 8:02 PM CDT
Astronomical Twilight 6:03 AM CDT 8:29 PM CDT
Moon 12:31 PM CDT (10/3) 11:15 PM CDT (10/3)
Length of Visible Light 12h 36m
Length of Day
11h 49m
Waxing Crescent, 30% of the Moon is Illuminated
Oct 3
Waxing Crescent
Oct 5
First Quarter
Oct 13
Full
Oct 21
Last Quarter
Oct 27
New

Hourly Weather History & Observations

Time (CDT) Temp. Heat Index Dew Point Humidity Pressure Visibility Wind Dir Wind Speed Gust Speed Precip Events Conditions
12:51 AM 75.0 °F - 73.0 °F 94% 29.96 in 7.0 mi NE 3.5 mph - N/A   Scattered Clouds
1:51 AM 73.9 °F - 72.0 °F 93% 29.96 in 6.0 mi Calm Calm - N/A   Clear
2:51 AM 72.0 °F - 70.0 °F 93% 29.96 in 5.0 mi North 3.5 mph - N/A   Partly Cloudy
3:51 AM 72.0 °F - 70.0 °F 93% 29.96 in 4.0 mi NNW 4.6 mph - N/A   Partly Cloudy
4:19 AM 73.0 °F - 71.1 °F 93% 29.96 in 5.0 mi NNE 3.5 mph - N/A   Mostly Cloudy
4:40 AM 73.0 °F - 71.1 °F 93% 29.96 in 5.0 mi NNE 5.8 mph - N/A   Scattered Clouds
4:51 AM 73.0 °F - 71.1 °F 93% 29.96 in 5.0 mi NNE 4.6 mph - N/A   Partly Cloudy
5:51 AM 73.0 °F - 71.1 °F 93% 29.97 in 5.0 mi Calm Calm - N/A   Mostly Cloudy
6:24 AM 73.9 °F - 72.0 °F 93% 29.98 in 5.0 mi North 4.6 mph - N/A   Scattered Clouds
6:51 AM 73.0 °F - 71.1 °F 93% 29.98 in 4.0 mi NNE 4.6 mph - N/A   Partly Cloudy
6:53 AM 73.0 °F - 71.1 °F 93% 29.98 in 4.0 mi NNE 3.5 mph - N/A   Partly Cloudy
7:51 AM 73.9 °F - 72.0 °F 93% 29.99 in 7.0 mi NE 5.8 mph - N/A   Clear
8:51 AM 78.1 °F - 73.9 °F 87% 30.00 in 7.0 mi NE 6.9 mph - N/A   Clear
9:51 AM 82.9 °F 90.2 °F 75.0 °F 77% 30.02 in 10.0 mi NE 9.2 mph - N/A   Partly Cloudy
10:19 AM 82.9 °F 90.2 °F 75.0 °F 77% 30.03 in 10.0 mi NE 6.9 mph - N/A   Partly Cloudy
10:51 AM 84.9 °F 93.3 °F 75.0 °F 72% 30.02 in 10.0 mi ENE 8.1 mph - N/A   Mostly Cloudy
11:51 AM 89.1 °F 97.0 °F 73.0 °F 59% 30.02 in 10.0 mi East 8.1 mph - N/A   Scattered Clouds
12:51 PM 90.0 °F 96.9 °F 72.0 °F 55% 30.00 in 10.0 mi ENE 9.2 mph - N/A   Mostly Cloudy
1:51 PM 93.0 °F 97.4 °F 68.0 °F 44% 29.98 in 10.0 mi East 11.5 mph 20.7 mph N/A   Scattered Clouds
2:51 PM 93.0 °F 96.4 °F 66.9 °F 42% 29.95 in 10.0 mi East 12.7 mph 19.6 mph N/A   Scattered Clouds
3:51 PM 91.0 °F 97.6 °F 71.1 °F 52% 29.94 in 10.0 mi SE 15.0 mph 19.6 mph N/A   Scattered Clouds
4:51 PM 89.1 °F 97.0 °F 73.0 °F 59% 29.94 in 10.0 mi SE 17.3 mph - N/A   Clear
5:51 PM 88.0 °F 93.8 °F 71.1 °F 57% 29.95 in 10.0 mi SE 17.3 mph - N/A   Partly Cloudy
6:51 PM 84.0 °F 88.4 °F 70.0 °F 63% 29.96 in 10.0 mi SE 11.5 mph - N/A   Clear
7:51 PM 81.0 °F 84.9 °F 71.1 °F 72% 29.97 in 10.0 mi SE 8.1 mph - N/A   Clear
8:51 PM 78.1 °F - 72.0 °F 81% 29.99 in 10.0 mi East 4.6 mph - N/A   Clear
9:51 PM 75.9 °F - 71.1 °F 85% 30.01 in 10.0 mi East 4.6 mph - N/A   Clear
10:51 PM 75.0 °F - 71.1 °F 87% 30.02 in 10.0 mi East 3.5 mph - N/A   Clear
11:51 PM 73.9 °F - 70.0 °F 87% 30.03 in 8.0 mi Calm Calm - N/A   Clear